Location: Bluff Heights
(33.7692°N, 118.1592°W)
Time: 11:47:42
(UTC+00:00)

CUBEBUG 2 - Visible Passes

Search period start: 21 September 2021 00:00
Search period end: 01 October 2021 00:00
Orbit: 586 x 696 km, 97.7° (Epoch: 21 September)

Date Brightness Start Highest point End Pass type
(mag) Time Alt. Az. Time Alt. Az. Time Alt. Az.
21 Sep ? 10:51:08 10° NNE 10:53:55 29° NE 10:53:55 29° NE visible
21 Sep ? 12:28:35 10° NNW 12:31:31 18° WNW 12:31:31 18° WNW visible
22 Sep ? 11:14:35 10° NNE 11:17:47 42° NNE 11:17:47 42° NNE visible
23 Sep ? 11:38:21 10° N 11:41:39 42° NNW 11:41:39 42° NNW visible
24 Sep ? 10:26:37 10° NE 10:27:55 15° ENE 10:27:55 15° ENE visible
24 Sep ? 12:02:27 10° N 12:05:30 28° NW 12:05:30 28° NW visible
25 Sep ? 10:49:35 10° NNE 10:51:46 24° NE 10:51:46 24° NE visible
25 Sep ? 12:26:59 10° NNW 12:29:22 17° NW 12:29:22 17° NW visible
26 Sep ? 11:13:02 10° NNE 11:15:37 32° NNE 11:15:37 32° NNE visible
27 Sep ? 11:36:47 10° N 11:39:28 33° N 11:39:28 33° N visible
28 Sep ? 10:25:07 10° NE 10:25:43 12° NE 10:25:43 12° NE visible
28 Sep ? 12:00:52 10° N 12:03:19 25° NNW 12:03:19 25° NNW visible
29 Sep ? 10:48:03 10° NNE 10:49:33 19° NE 10:49:33 19° NE visible
29 Sep ? 12:25:23 10° NNW 12:27:09 16° NW 12:27:09 16° NW visible
30 Sep ? 11:11:27 10° NNE 11:13:24 25° NNE 11:13:24 25° NNE visible
